Location: Stamford Observatory
(41.1241°N, 73.5498°W)
Time: 21:29:39
(UTC-04:00)

IRS-P3 - Visible Passes

Search period start: 22 July 2014 00:00
Search period end: 01 August 2014 00:00
Orbit: 816 x 820 km, 98.6° (Epoch: 21 July)

Date Brightness Start Highest point End Pass type
(mag) Time Alt. Az. Time Alt. Az. Time Alt. Az.
22 Jul 4.7 02:13:57 10° NNE 02:19:06 46° E 02:19:54 43° SE visible
22 Jul 5.6 03:54:40 10° NNW 03:58:49 24° WNW 04:01:12 17° W visible
23 Jul 5.4 01:52:55 10° NE 01:57:33 29° E 01:58:10 29° ESE visible
23 Jul 5.0 03:32:47 10° N 03:37:36 35° WNW 03:39:28 27° WSW visible
24 Jul 6.0 01:32:14 10° NE 01:35:57 19° E 01:36:25 19° E visible
24 Jul 4.4 03:11:06 10° N 03:16:18 54° WNW 03:17:44 42° WSW visible
25 Jul 6.5 01:12:30 10° ENE 01:14:16 12° E 01:14:41 11° E visible
25 Jul 4.0 02:49:35 10° NNE 02:54:57 84° WNW 02:55:59 60° SSW visible
25 Jul 6.2 04:32:19 10° NW 04:34:08 12° WNW 04:35:57 10° WNW visible
26 Jul 4.3 02:28:13 10° NNE 02:33:32 63° ESE 02:34:14 57° SE visible
26 Jul 5.9 04:09:33 10° NNW 04:13:02 18° WNW 04:15:33 13° W visible
27 Jul 4.9 02:07:02 10° NNE 02:12:02 40° E 02:12:30 39° ESE visible
27 Jul 5.4 03:47:28 10° N 03:51:52 27° WNW 03:53:48 22° W visible
28 Jul 5.6 01:46:05 10° NE 01:50:29 26° E 01:50:45 26° E visible
28 Jul 4.8 03:25:39 10° N 03:30:37 40° WNW 03:32:03 34° WSW visible
29 Jul 6.2 01:25:34 10° NE 01:28:51 16° E 01:29:00 16° E visible
29 Jul 4.2 03:04:02 10° N 03:09:18 63° WNW 03:10:18 52° WSW visible
30 Jul 4.0 02:42:33 10° NNE 02:47:56 85° ESE 02:48:33 70° S visible
30 Jul 6.1 04:24:42 10° NNW 04:27:13 14° WNW 04:29:43 10° W visible
31 Jul 4.4 02:21:15 10° NNE 02:26:29 54° E 02:26:48 53° ESE visible
31 Jul 5.7 04:02:16 10° NNW 04:06:05 20° WNW 04:08:07 17° W visible
